FW8253 Weather Reports


Display with metric or nautical units.
time (UTC)temp
F
wind
direction
speed
MPH
gust
MPH
rain 1hr
in
rain 24hr
in
rain mn
in
humidity
%
barometer
mb
20260507114203 66 228 0.0 0.0 0.00 0.05 0.05 99 1010.6
20260507113700 66 227 0.0 0.0 0.00 0.05 0.05 99 1009.7
20260507113157 66 207 0.0 0.0 0.00 0.05 0.05 99 1010.1
20260507112655 66 180 0.0 0.0 0.00 0.05 0.05 99 1010.7
20260507112151 66 230 0.0 0.0 0.00 0.05 0.05 99 1011.0
20260507111649 66 190 0.0 0.0 0.00 0.05 0.05 99 1010.9
20260507111145 66 5 0.0 0.0 0.00 0.05 0.05 99 1011.2
20260507110641 67 31 0.0 0.0 0.00 0.05 0.05 99 1011.6
20260507110138 67 196 0.0 0.0 0.00 0.05 0.05 99 1012.1
20260507105635 67 194 0.0 0.0 0.00 0.05 0.05 99 1012.1
20260507105131 67 234 0.0 0.0 0.00 0.05 0.05 99 1012.5
20260507104629 67 318 0.0 0.0 0.00 0.05 0.05 99 1012.5
20260507104125 67 193 0.0 0.0 0.00 0.05 0.05 99 1012.0
20260507103621 67 228 0.0 0.0 0.00 0.05 0.05 99 1012.6
20260507103118 67 234 0.0 0.0 0.00 0.05 0.05 99 1012.5
20260507102614 67 225 0.0 0.0 0.00 0.05 0.05 99 1012.8
20260507102110 67 225 0.0 0.0 0.00 0.05 0.05 99 1012.9
20260507101607 67 225 0.0 0.0 0.00 0.05 0.05 99 1012.9
20260507101102 67 225 0.0 0.0 0.00 0.05 0.05 99 1012.9
20260507100600 67 228 0.0 0.0 0.00 0.05 0.05 99 1013.1
20260507100058 67 221 0.0 0.0 0.00 0.05 0.05 99 1012.9
20260507095555 67 215 0.0 0.0 0.00 0.05 0.05 99 1012.7
20260507095052 67 216 0.0 0.0 0.00 0.05 0.05 99 1013.1
20260507094548 67 223 0.0 0.0 0.00 0.05 0.05 99 1012.9
20260507094046 67 208 0.0 0.0 0.00 0.05 0.05 99 1012.5
20260507093543 67 182 0.0 0.0 0.00 0.05 0.05 99 1012.6
20260507093042 67 194 0.0 0.0 0.00 0.05 0.05 99 1012.9
20260507092537 67 204 0.0 0.0 0.00 0.05 0.05 99 1013.0
20260507092034 67 213 0.0 0.0 0.00 0.05 0.05 99 1012.9
20260507091531 67 210 0.0 0.0 0.00 0.05 0.05 99 1013.4
20260507091027 67 0 0.0 0.0 0.00 0.05 0.05 99 1013.6
20260507090523 67 208 0.0 0.0 0.00 0.05 0.05 99 1013.3
20260507090020 67 195 0.0 0.0 0.00 0.05 0.05 99 1013.4
20260507085517 68 179 0.0 0.0 0.00 0.05 0.05 99 1014.0
20260507085014 68 212 0.0 0.0 0.00 0.05 0.05 99 1014.6
20260507084511 68 207 0.0 0.0 0.00 0.05 0.05 99 1014.6
20260507084008 68 233 0.0 0.0 0.00 0.05 0.05 99 1014.6
20260507083504 68 223 0.0 0.0 0.07 0.05 0.05 99 1014.1
20260507083001 68 206 0.0 0.0 0.07 0.05 0.05 99 1014.1
20260507082457 68 217 0.0 0.0 0.07 0.05 0.05 99 1013.4
20260507081953 68 197 0.0 0.0 0.00 0.04 0.04 99 1013.5
20260507081449 68 207 0.0 0.0 0.00 0.04 0.04 99 1013.8
20260507080947 68 220 0.0 0.0 0.00 0.04 0.04 99 1014.1
20260507080442 68 202 0.0 0.0 0.05 0.04 0.04 99 1013.9
20260507075937 68 228 0.0 0.0 0.05 0.04 0.04 99 1013.8
20260507075435 68 195 0.0 0.0 0.00 0.03 0.03 99 1013.7
20260507074931 68 207 0.0 0.0 0.00 0.03 0.03 99 1013.7
20260507074428 68 208 0.0 0.0 0.00 0.03 0.03 99 1013.7
20260507073926 68 202 0.0 0.0 0.00 0.03 0.03 99 1013.8
20260507073422 68 201 0.0 0.0 0.00 0.03 0.03 99 1013.7
20260507072919 68 219 0.0 0.0 0.00 0.03 0.03 99 1013.5
20260507072416 68 206 0.0 0.0 0.07 0.03 0.03 98 1013.2
20260507071914 68 102 0.0 0.0 0.07 0.03 0.03 98 1013.4
20260507071411 69 206 0.0 0.0 0.07 0.02 0.02 97 1013.6
20260507070907 69 7 0.0 0.0 0.07 0.02 0.02 96 1013.8
20260507070405 69 245 0.0 0.0 0.05 0.01 0.01 95 1013.8
20260507065901 69 217 0.0 0.0 0.05 0.01 0.01 94 1014.4
20260507065358 69 187 0.0 0.0 0.00 0.00 0.00 93 1014.0
20260507064855 68 115 0.0 0.0 0.00 0.00 0.00 94 1014.4
20260507064353 69 53 0.0 0.0 0.00 0.00 0.00 92 1014.1
20260507063851 69 198 0.0 0.0 0.00 0.00 0.00 91 1014.1
20260507063348 69 198 0.0 0.0 0.00 0.00 0.00 88 1013.5
20260507062844 69 165 0.0 0.0 0.00 0.00 0.00 86 1013.1
20260507062341 70 165 0.0 0.0 0.00 0.00 0.00 85 1012.8
20260507061839 70 178 0.0 0.0 0.00 0.00 0.00 85 1012.7
20260507061337 70 181 0.0 0.0 0.00 0.00 0.00 84 1012.7
20260507060835 70 180 0.0 0.0 0.00 0.00 0.00 84 1012.6
20260507060332 70 180 0.0 0.0 0.00 0.00 0.00 84 1012.5
20260507055828 70 180 0.0 0.0 0.00 0.00 0.00 83 1012.6
20260507055323 70 180 0.0 0.0 0.00 0.00 0.00 83 1012.7
20260507054820 70 180 0.0 0.0 0.00 0.00 0.00 83 1012.9
20260507054316 70 180 0.0 0.0 0.00 0.00 0.00 83 1012.9
20260507053814 70 181 0.0 0.0 0.00 0.00 0.00 83 1013.4
20260507053312 70 181 0.0 0.0 0.00 0.00 0.00 83 1013.4
20260507052811 70 180 0.0 0.0 0.00 0.00 0.00 83 1013.3
20260507052307 70 190 0.0 0.0 0.00 0.00 0.00 84 1013.7
20260507051805 70 188 0.0 0.0 0.00 0.00 0.00 85 1014.0
20260507051302 70 188 0.0 0.0 0.00 0.00 0.00 84 1014.3
20260507050759 70 188 0.0 0.0 0.00 0.00 0.00 84 1014.2
20260507050255 70 189 0.0 0.0 0.00 0.00 0.00 86 1014.6
20260507045752 71 189 0.0 0.0 0.00 0.00 0.00 83 1014.7
20260507045249 71 189 0.0 0.0 0.00 0.00 0.00 83 1014.5
20260507044746 71 189 0.0 0.0 0.00 0.00 0.00 82 1014.3
20260507044242 71 187 0.0 0.0 0.00 0.00 0.00 81 1014.5
20260507043738 71 194 0.0 0.0 0.00 0.00 0.00 83 1014.7
20260507043235 71 202 0.0 0.0 0.00 0.00 0.00 81 1014.7
20260507042731 71 202 0.0 0.0 0.00 0.00 0.00 81 1014.3
20260507042226 72 202 0.0 0.0 0.00 0.00 0.00 81 1014.6
20260507041724 72 202 0.0 0.0 0.00 0.00 0.00 81 1014.4
20260507041220 72 202 0.0 0.0 0.00 0.00 0.00 80 1014.4
20260507040717 72 202 0.0 0.0 0.00 0.00 0.00 79 1014.4
20260507040213 72 202 0.0 0.0 0.00 0.00 0.00 79 1014.2
20260507035709 72 202 0.0 0.0 0.00 0.00 0.00 78 1014.2
20260507035205 72 202 0.0 0.0 0.00 0.00 0.00 79 1014.1
20260507034702 72 202 0.0 0.0 0.00 0.00 0.00 78 1014.2
20260507034200 72 203 0.0 0.0 0.00 0.00 0.00 79 1014.1
20260507033658 72 202 0.0 0.0 0.00 0.00 0.00 78 1014.2
20260507033155 73 202 0.0 0.0 0.00 0.00 0.00 79 1014.2
20260507032652 73 203 0.0 0.0 0.00 0.00 0.00 79 1014.7
20260507032148 73 203 0.0 0.0 0.00 0.00 0.00 80 1014.6
20260507031645 73 203 0.0 0.0 0.00 0.00 0.00 79 1014.7
20260507031141 73 203 0.0 0.0 0.00 0.00 0.00 78 1014.6
20260507030638 73 203 0.0 0.0 0.00 0.00 0.00 78 1014.6
20260507030136 72 203 0.0 0.0 0.00 0.00 0.00 78 1014.0
20260507025633 72 203 0.0 0.0 0.00 0.00 0.00 77 1014.3
20260507025130 72 203 0.0 0.0 0.00 0.00 0.00 77 1014.2
20260507024628 72 210 0.0 0.0 0.00 0.00 0.00 77 1014.2
20260507024125 72 209 0.0 0.0 0.00 0.00 0.00 77 1013.6
20260507023620 72 210 0.0 0.0 0.00 0.00 0.00 79 1013.5
20260507023118 73 209 0.0 0.0 0.00 0.00 0.00 78 1013.7
20260507022615 72 210 0.0 0.0 0.00 0.00 0.00 78 1013.8
20260507022110 73 223 0.0 0.0 0.00 0.00 0.00 78 1013.7
20260507021607 73 172 0.0 0.0 0.00 0.00 0.00 79 1013.5
20260507021103 73 172 0.0 0.0 0.00 0.00 0.00 79 1013.5
20260507020601 73 172 0.0 0.0 0.00 0.00 0.00 79 1013.6
20260507020057 73 171 0.0 0.0 0.00 0.00 0.00 78 1013.5
20260507015556 73 173 0.0 0.0 0.00 0.00 0.00 79 1013.4
20260507015053 73 173 0.0 0.0 0.00 0.00 0.00 79 1013.3
20260507014549 73 173 0.0 0.0 0.00 0.00 0.00 78 1013.2
20260507014045 73 173 0.0 0.0 0.00 0.00 0.00 77 1013.1
20260507013542 73 173 0.0 0.0 0.00 0.00 0.00 77 1012.8
20260507013039 74 173 0.0 0.0 0.00 0.00 0.00 76 1012.8
20260507012536 74 170 0.0 0.0 0.00 0.00 0.00 76 1012.8
20260507012032 74 170 0.0 0.0 0.00 0.00 0.00 76 1012.7
20260507011530 74 170 0.0 0.0 0.00 0.00 0.00 76 1012.8
20260507011026 74 168 0.0 0.0 0.00 0.00 0.00 76 1012.9
20260507010520 75 175 0.0 0.0 0.00 0.00 0.00 74 1013.3
20260507010017 75 174 0.0 0.0 0.00 0.00 0.00 75 1012.7
20260507005515 75 174 0.0 0.0 0.00 0.00 0.00 73 1012.9
20260507005011 75 183 0.0 0.0 0.00 0.00 0.00 75 1012.8
20260507004508 75 183 0.0 0.0 0.00 0.00 0.00 74 1012.9
20260507004006 76 196 0.0 0.0 0.00 0.00 0.00 73 1013.3
20260507003501 76 196 0.0 0.0 0.00 0.00 0.00 73 1013.3
20260507002955 76 196 0.0 0.0 0.00 0.00 0.00 72 1013.5
20260507002453 77 194 0.0 0.0 0.00 0.00 0.00 73 1013.7
20260507001949 77 194 0.0 0.0 0.00 0.00 0.00 73 1013.5
20260507001446 77 193 0.0 0.0 0.00 0.00 0.00 74 1013.3
20260507000943 78 231 0.0 0.0 0.00 0.00 0.00 73 1013.6
20260507000439 78 225 0.0 0.0 0.00 0.00 0.00 72 1013.5
20260506235934 79 225 0.0 0.0 0.00 0.00 0.00 71 1013.6
20260506235432 79 225 0.0 0.0 0.00 0.00 0.00 71 1013.4
20260506234927 80 224 0.0 0.0 0.00 0.00 0.00 70 1013.6
20260506234426 80 225 0.0 0.0 0.00 0.00 0.00 70 1013.6
20260506233923 80 223 0.0 0.0 0.00 0.00 0.00 69 1013.5
20260506233419 81 227 0.0 0.0 0.00 0.00 0.00 68 1013.5
20260506232916 81 200 0.0 0.0 0.00 0.00 0.00 66 1013.1
20260506232412 82 218 0.0 0.0 0.00 0.00 0.00 65 1013.4
20260506231908 82 217 0.0 0.0 0.00 0.00 0.00 65 1013.3
20260506231406 82 216 0.0 0.0 0.00 0.00 0.00 64 1013.4
20260506230903 83 216 0.0 0.0 0.00 0.00 0.00 65 1013.3
20260506230359 82 216 0.0 0.0 0.00 0.00 0.00 66 1013.3
20260506225856 83 216 0.0 0.0 0.00 0.00 0.00 65 1013.2
20260506225353 82 204 0.0 0.0 0.00 0.00 0.00 68 1013.1
20260506224850 83 166 0.0 0.0 0.00 0.00 0.00 65 1013.1
20260506224348 83 216 0.0 0.0 0.00 0.00 0.00 64 1013.0
20260506223843 84 226 0.0 0.0 0.00 0.00 0.00 58 1013.0
20260506223339 84 169 0.0 0.0 0.00 0.00 0.00 61 1012.9
20260506222836 84 231 0.0 0.0 0.00 0.00 0.00 59 1013.3
20260506222331 84 223 0.0 0.0 0.00 0.00 0.00 63 1012.9
20260506221830 84 211 0.0 0.0 0.00 0.00 0.00 64 1013.3
20260506221327 84 225 0.0 0.0 0.00 0.00 0.00 62 1013.2
20260506220825 84 229 0.0 0.0 0.00 0.00 0.00 62 1013.5
20260506220320 85 237 0.0 0.0 0.00 0.00 0.00 59 1013.4
20260506215817 85 245 0.0 0.0 0.00 0.00 0.00 61 1013.6
20260506215312 85 230 0.0 0.0 0.00 0.00 0.00 57 1013.7
20260506214808 85 204 0.0 0.0 0.00 0.00 0.00 58 1013.6
20260506214305 85 202 0.0 0.0 0.00 0.00 0.00 60 1013.6
20260506213804 85 233 0.0 0.0 0.00 0.00 0.00 55 1013.6
20260506213300 85 218 0.0 0.0 0.00 0.00 0.00 57 1013.5
20260506212758 85 221 0.0 0.0 0.00 0.00 0.00 60 1013.3
20260506212253 86 233 0.0 0.0 0.00 0.00 0.00 58 1013.1
20260506211748 87 255 0.0 0.0 0.00 0.00 0.00 55 1013.3
20260506211245 87 13 0.0 0.0 0.00 0.00 0.00 54 1013.6
20260506210742 88 226 0.0 0.0 0.00 0.00 0.00 53 1013.5
20260506210239 88 24 0.0 0.0 0.00 0.00 0.00 49 1013.3
20260506205736 88 211 0.0 0.0 0.00 0.00 0.00 53 1013.8
20260506205232 86 221 0.0 0.0 0.00 0.00 0.00 58 1013.8
20260506204729 86 217 0.0 0.0 0.00 0.00 0.00 58 1013.6
20260506204226 88 128 0.0 0.0 0.00 0.00 0.00 48 1013.6
20260506203724 89 230 0.0 0.0 0.00 0.00 0.00 51 1013.8
20260506203221 89 231 0.0 0.0 0.00 0.00 0.00 52 1013.8
20260506202719 90 166 0.0 0.0 0.00 0.00 0.00 48 1014.0
20260506202215 90 238 0.0 0.0 0.00 0.00 0.00 48 1014.1
20260506201712 90 242 0.0 0.0 0.00 0.00 0.00 46 1014.2
20260506201209 90 169 0.0 0.0 0.00 0.00 0.00 46 1014.3
20260506200705 90 230 0.0 0.0 0.00 0.00 0.00 48 1014.3
20260506200202 90 284 0.0 0.0 0.00 0.00 0.00 46 1014.7
20260506195659 89 217 0.0 0.0 0.00 0.00 0.00 46 1014.5
20260506195155 89 231 0.0 0.0 0.00 0.00 0.00 47 1014.5
20260506194653 89 231 0.0 0.0 0.00 0.00 0.00 49 1014.6
20260506194149 89 245 0.0 0.0 0.00 0.00 0.00 52 1014.8
20260506193647 89 243 0.0 0.0 0.00 0.00 0.00 49 1015.1
20260506193143 89 244 0.0 0.0 0.00 0.00 0.00 50 1015.0
20260506192640 89 224 0.0 0.0 0.00 0.00 0.00 52 1014.9
20260506192136 88 224 0.0 0.0 0.00 0.00 0.00 47 1015.2
20260506191633 88 222 0.0 0.0 0.00 0.00 0.00 49 1015.2
20260506191129 88 313 0.0 0.0 0.00 0.00 0.00 47 1015.2
20260506190627 88 208 0.0 0.0 0.00 0.00 0.00 51 1015.3
20260506190123 87 237 0.0 0.0 0.00 0.00 0.00 52 1015.4
20260506185621 87 227 0.0 0.0 0.00 0.00 0.00 51 1015.3
20260506185117 87 221 0.0 0.0 0.00 0.00 0.00 49 1015.5
20260506184614 87 231 0.0 0.0 0.00 0.00 0.00 51 1015.2
20260506184111 87 225 0.0 0.0 0.00 0.00 0.00 55 1015.4
20260506183608 87 147 0.0 0.0 0.00 0.00 0.00 51 1015.7
20260506183104 87 224 0.0 0.0 0.00 0.00 0.00 54 1015.5
20260506182602 87 234 0.0 0.0 0.00 0.00 0.00 56 1015.6
20260506182058 86 240 0.0 0.0 0.00 0.00 0.00 57 1015.7
20260506181556 86 224 0.0 0.0 0.00 0.00 0.00 55 1016.0
20260506181053 86 187 0.0 0.0 0.00 0.00 0.00 55 1016.0
20260506180550 87 235 0.0 0.0 0.00 0.00 0.00 58 1015.9
20260506180047 86 194 0.0 0.0 0.00 0.00 0.00 57 1016.2
20260506175543 86 246 0.0 0.0 0.00 0.00 0.00 54 1016.5
20260506175039 85 218 0.0 0.0 0.00 0.00 0.00 58 1016.3
20260506174538 84 70 0.0 0.0 0.00 0.00 0.00 60 1016.5
20260506174033 84 210 0.0 0.0 0.00 0.00 0.00 63 1016.4
20260506173532 84 132 0.0 0.0 0.00 0.00 0.00 61 1016.8
20260506173028 84 46 0.0 0.0 0.00 0.00 0.00 58 1016.9
20260506172526 84 140 0.0 0.0 0.00 0.00 0.00 59 1017.0
20260506172022 83 153 0.0 0.0 0.00 0.00 0.00 63 1017.4
20260506171519 82 233 0.0 0.0 0.00 0.00 0.00 66 1017.4
20260506171017 82 165 0.0 0.0 0.00 0.00 0.00 62 1017.5
20260506170514 82 218 0.0 0.0 0.00 0.00 0.00 66 1017.4
20260506170006 82 345 0.0 0.0 0.00 0.00 0.00 66 1017.7
20260506165504 82 212 0.0 0.0 0.00 0.00 0.00 69 1017.7
20260506165000 81 243 0.0 0.0 0.00 0.00 0.00 66 1017.5
20260506164456 81 216 0.0 0.0 0.00 0.00 0.00 67 1017.6
20260506163954 81 222 0.0 0.0 0.00 0.00 0.00 68 1018.0
20260506163449 80 21 0.0 0.0 0.00 0.00 0.00 65 1017.9
20260506162944 80 162 0.0 0.0 0.00 0.00 0.00 67 1018.0
20260506162442 80 333 0.0 0.0 0.00 0.00 0.00 72 1018.2
20260506161934 80 196 0.0 0.0 0.00 0.00 0.00 68 1018.3
20260506161432 79 223 0.0 0.0 0.00 0.00 0.00 74 1018.1
20260506160929 78 215 0.0 0.0 0.00 0.00 0.00 73 1018.1
20260506160426 77 211 0.0 0.0 0.00 0.00 0.00 75 1017.9
20260506155923 76 221 0.0 0.0 0.00 0.00 0.00 77 1018.0
20260506155420 76 235 0.0 0.0 0.00 0.00 0.00 77 1018.1
20260506153542 76 208 0.0 0.0 0.00 0.00 0.00 77 1017.9
20260506153040 76 202 0.0 0.0 0.00 0.00 0.00 77 1017.7
20260506152537 76 205 0.0 0.0 0.00 0.00 0.00 76 1017.7
20260506152035 76 209 0.0 0.0 0.00 0.00 0.00 75 1017.7
20260506151532 77 187 0.0 0.0 0.00 0.00 0.00 75 1017.5
20260506151029 77 216 0.0 0.0 0.00 0.00 0.00 75 1017.5
20260506150526 77 233 0.0 0.0 0.00 0.00 0.00 76 1017.8
20260506150023 77 124 0.0 0.0 0.00 0.00 0.00 75 1017.5
20260506145519 76 211 0.0 0.0 0.00 0.00 0.00 77 1017.7
20260506145017 75 201 0.0 0.0 0.00 0.00 0.00 77 1017.6
20260506144513 74 239 0.0 0.0 0.00 0.00 0.00 79 1017.7
20260506144011 73 244 0.0 0.0 0.00 0.00 0.00 82 1017.9
20260506143508 73 248 0.0 0.0 0.00 0.00 0.00 81 1017.6
20260506143007 72 247 0.0 0.0 0.00 0.00 0.00 81 1017.7
20260506142504 72 247 0.0 0.0 0.00 0.00 0.00 84 1017.8
20260506142002 72 243 0.0 0.0 0.00 0.00 0.00 82 1017.7
20260506141459 71 191 0.0 0.0 0.00 0.00 0.00 83 1017.6
20260506140958 71 190 0.0 0.0 0.00 0.00 0.00 82 1017.8
20260506140454 71 190 0.0 0.0 0.00 0.00 0.00 82 1017.9
20260506135951 70 190 0.0 0.0 0.00 0.00 0.00 84 1017.9
20260506135449 70 190 0.0 0.0 0.00 0.00 0.00 83 1017.9
20260506134944 70 190 0.0 0.0 0.00 0.00 0.00 84 1017.6
20260506134440 69 191 0.0 0.0 0.00 0.00 0.00 84 1017.8
20260506133938 69 193 0.0 0.0 0.00 0.00 0.00 84 1017.7
20260506133435 69 181 0.0 0.0 0.00 0.00 0.00 85 1017.6
20260506132931 68 181 0.0 0.0 0.00 0.00 0.00 84 1017.7
20260506132429 68 179 0.0 0.0 0.00 0.00 0.00 84 1017.7
20260506131926 68 180 0.0 0.0 0.00 0.00 0.00 82 1017.8
20260506131422 67 180 0.0 0.0 0.00 0.00 0.00 84 1017.6
20260506130920 66 183 0.0 0.0 0.00 0.00 0.00 85 1017.8
20260506130416 66 173 0.0 0.0 0.00 0.00 0.00 87 1017.6
20260506125914 65 173 0.0 0.0 0.00 0.00 0.00 88 1017.7
20260506125412 64 174 0.0 0.0 0.00 0.00 0.00 91 1017.6
20260506124910 64 174 0.0 0.0 0.00 0.00 0.00 91 1017.5
20260506124407 64 174 0.0 0.0 0.00 0.00 0.00 92 1017.5
20260506123905 63 174 0.0 0.0 0.00 0.00 0.00 91 1017.3
20260506123403 63 174 0.0 0.0 0.00 0.00 0.00 92 1017.4
20260506122900 63 173 0.0 0.0 0.00 0.00 0.00 93 1017.8
20260506122356 62 173 0.0 0.0 0.00 0.00 0.00 94 1017.4
20260506121855 62 173 0.0 0.0 0.00 0.00 0.00 94 1017.5
20260506121351 62 173 0.0 0.0 0.00 0.00 0.00 94 1017.3
20260506120848 61 173 0.0 0.0 0.00 0.00 0.00 95 1017.3
20260506120346 61 173 0.0 0.0 0.00 0.00 0.00 95 1017.4
20260506115843 61 173 0.0 0.0 0.00 0.00 0.00 96 1017.3
20260506115341 60 173 0.0 0.0 0.00 0.00 0.00 96 1017.2
20260506114839 59 173 0.0 0.0 0.00 0.00 0.00 98 1017.0